Terug naar catalogus

TIANMU-1 15

ActiefWeerSSO
NORAD 58700·PAYLOAD·🇨🇳 China

Gelanceerd Jan 5, 2024 vanaf Jiuquan Satellite Launch Center

Loading…

Volgende Passages (komende 24 uur)

TLE

VersSource: Space-Track

Epoch: Sep 14, 2026, 14:34 UTC

1 58700U 24004A   26257.60705222  .00004319  00000-0  16351-3 0  9992
2 58700  97.4671  83.8359 0007918  31.8000 328.3715 15.27442577149422

Volg TIANMU-1 15 in realtime met AllMySat

Download on the App Store